User: anonymous   Login
Location: Blue Mountain Vista Observatory
(40.6992°N, 75.9422°W)
Time: 07:09:20
(UTC-04:00)
Language:

CZ-4C R/B - Orbit

View from above orbital plane
View from above orbital plane
View from above satellite
View from above satellite

Ground track
Ground track

The orbit data is extracted from the following two-line orbital elements,

1 36416U 10009D   17145.57021556 -.00000096 +00000-0 +54295-6 0  9996
2 36416 063.4395 324.7785 0384741 356.3791 003.4478 13.69516473361112
Epoch (UTC): 25 May 2017 13:41:06
Eccentricity: 0.0384741
inclination: 63.4395°
perigee height: 717 km
apogee height: 1285 km
right ascension of ascending node: 324.7785°
argument of perigee: 356.3791°
revolutions per day: 13.69516473
mean anomaly at epoch: 3.4478°
orbit number at epoch: 36111

The dashed part of the orbit path shows where the satellite is in the earth's shadow,  

DLR